Regional Weather Roundup
Issued by NWS

Home | Current Version | Previous Version | Graphics & Text | Print | Product List | Glossary On
Versions: 1 2 3 4 5 6 7 8 9 10 11 12 13 14 15 16 17 18 19 20 21 22 23 24 25 26 27 28 29 30 31 32 33 34 35 36 37 38 39 40 41 42 43 44 45 46 47 48 49 50
000
ASUS45 KBOU 272307
RWRCO

WEATHER ROUNDUP FOR COLORADO
NATIONAL WEATHER SERVICE DENVER/BOULDER CO
400 PM MST THU NOV 27 2014

NOTE: "FAIR" INDICATES FEW OR NO CLOUDS BELOW 12000 FEET WITH NO
SIGNIFICANT WEATHER AND/OR OBSTRUCTIONS TO VISIBILITY.

COZ001>005-013-030-031-280000-
...NORTHWEST COLORADO...

CITY           SKY/WX    TMP DP  RH WIND       PRES   REMARKS
CRAIG          CLOUDY    42  27  55 SE3       30.28S
HAYDEN         CLOUDY    37  27  65 SE9       30.29R
MEEKER         CLOUDY    49  23  36 SW12      30.28F
MOUNT WERNER   NOT AVBL
STEAMBOAT SPGS CLOUDY    36  29  76 CALM      30.31R
WALDEN         MOCLDY    39  21  48 SW7       30.30R
$$

COZ006>008-011-280000-
...WEST CENTRAL VALLEYS...

CITY           SKY/WX    TMP DP  RH WIND       PRES   REMARKS
GRAND JUNCTION MOCLDY    50  27  40 W5        30.32F
MONTROSE       PTCLDY    55  23  28 SW3       30.34F
EAGLE          PTCLDY    48  21  34 W15       30.33S
RIFLE          CLOUDY    46  28  49 CALM      30.32F
DELTA          PTCLDY    58  25  28 SW6       30.32S
NUCLA          PTCLDY    54  23  30 CALM      30.38S
$$

COZ017>023-064>068-280000-
...SOUTHWEST COLORADO...

CITY           SKY/WX    TMP DP  RH WIND       PRES   REMARKS
DURANGO        CLEAR     53  21  28 SW8       30.37S
CORTEZ         CLEAR     50  23  34 SW7       30.37S
PAGOSA SPRINGS CLEAR     54  19  25 SW5       30.40R
TELLURIDE      PTCLDY    50  14  24 CALM      30.47S
WOLF CREEK PAS CLEAR     36  14  41 MISG      30.54S
$$

COZ009-010-012-014-032>034-037-058>063-280000-
...CENTRAL COLORADO...

CITY           SKY/WX    TMP DP  RH WIND       PRES   REMARKS
ASPEN          PTCLDY    41  23  48 NW5       30.36S
BUENA VISTA    CLEAR     51  15  23 W17G28    30.32S
COPPER MTN     MOCLDY    34  16  47 W33G47    30.45F HAZE    WCI  19
BERTHOUD PASS  NOT AVBL
COTTONWOOD PAS CLEAR     45  12  26 NW13G26   30.38R
GUNNISON       CLEAR     36  19  51 N6        30.45S
KREMMLING      CLOUDY    45  23  42 W12G17    30.31F
LEADVILLE      PTCLDY    37  17  44 N8        30.41R
MONARCH PASS   CLEAR     30  18  59 W35       30.58S WCI  14
SALIDA         CLEAR     56  14  19 W18G25    30.38R
SUNLIGHT       MOCLDY    32  23  69 SW3       30.45F
WILKERSON PASS PTCLDY    36  12  38 W21G33    30.40F
$$

COZ069>075-280000-
...SAN LUIS VALLEY/SANGRE DE CRISTO MOUNTAINS...

CITY           SKY/WX    TMP DP  RH WIND       PRES   REMARKS
ALAMOSA        CLEAR     51  17  26 CALM      30.36S
LA VETA PASS   CLEAR     41  14  33 S6        30.42S
SAGUACHE       NOT AVBL
$$

COZ035-036-038>040-280000-
...NORTHERN COLORADO FRONT RANGE...

CITY           SKY/WX    TMP DP  RH WIND       PRES   REMARKS
DENVER INTL AP CLOUDY    60  19  20 W14       30.12R
DMNS CITY PARK   N/A     61  18  18 SE3       30.11F
AURORA         MOCLDY    57  19  22 S3        30.14F
FRONT RANGE AP NOT AVBL
ERIE MUNI ARPT CLOUDY    64  16  15 W20G28    30.11S
BOULDER MUN AP CLOUDY    63  21  20 W7G20     30.10R
CENTENNIAL     CLOUDY    55  24  30 SE7       30.14F
BROOMFIELD     MOCLDY    66  18  15 NW9G36    30.12F
FORT COLLINS   CLOUDY    63  27  25 N6        30.10S
LONGMONT       CLOUDY    65  18  16 W12G22    30.10F
$$

COZ041-046-047-076>085-087-088-280000-
...PIKES PEAK/PALMER DIVIDE AND SOUTHERN FOOTHILLS...

CITY           SKY/WX    TMP DP  RH WIND       PRES   REMARKS
COLO. SPRINGS  CLOUDY    62  13  14 W20G30    30.19S
A. F. ACADEMY  CLOUDY    58  13  16 NE2       30.20R
ELLICOTT       NOT AVBL
FALCON         NOT AVBL
FORT CARSON    CLOUDY    61  17  17 W12       30.17R
LIMON          CLOUDY    51  22  31 NW9       30.14S
MONUMENT HILL  MOCLDY    52  18  25 W6        30.21F
TRINIDAD       PTCLDY    64  25  22 NW3       30.21S
$$

COZ042>045-048>051-090-091-280000-
...NORTHEAST COLORADO...

CITY           SKY/WX    TMP DP  RH WIND       PRES   REMARKS
GREELEY ARPT   CLOUDY    55  23  28 W16       30.10R
AKRON          CLOUDY    49  31  49 W8        30.08S
BURLINGTON     CLOUDY    54  26  34 SW8       30.09F
WRAY           MOCLDY    56  30  36 NW5       30.05S
STERLING       CLOUDY    41  36  81 S3        30.04F
HOLYOKE        MOCLDY    54  34  47 W8        30.04S
FORT MORGAN    CLOUDY    48  30  50 W7        30.09S
$$

COZ086-089-092>099-280000-
...SOUTHEAST COLORADO...

CITY           SKY/WX    TMP DP  RH WIND       PRES   REMARKS
PUEBLO         CLOUDY    66  15  14 W8        30.12S
LA JUNTA       MOCLDY    63  23  21 CALM      30.11F
LAMAR          CLOUDY    55  29  36 E6        30.09F
SPRINGFIELD      N/A     66  21  18 SW3       30.13S
$$



USA.gov is the U.S. government's official web portal to all federal, state and local government web resources and services.